Terminal Aerodrome Forecast
Issued by NWS Twin Cities, MN

Home | Current Version | Previous Version | Graphics & Text | Print | Product List | Glossary On
Versions: 1 2 3 4 5 6 7 8 9 10 11 12 13 14 15
000
FTUS43 KMPX 120500
TAFEAU
TAF
KEAU 120520Z 1206/1306 01003KT P6SM BKN060 BKN150
     FM121500 33004KT P6SM -SHRA OVC040
     FM122200 30003KT P6SM OVC060
     FM130000 VRB02KT P6SM SCT100=

USA.gov is the U.S. government's official web portal to all federal, state and local government web resources and services.